Regional Weather Roundup
Issued by NWS

Home | Current Version | Previous Version | Text Only | Print | Product List | Glossary On
Versions: 1 2 3 4 5 6 7 8 9 10 11 12 13 14 15 16 17 18 19 20 21 22 23 24 25 26 27 28 29 30 31 32 33 34 35 36 37 38 39 40 41 42 43 44 45 46 47 48 49 50
000
ASUS44 KFWD 030203
RWRTX
NORTH TEXAS HOURLY WEATHER ROUNDUP
NATIONAL WEATHER SERVICE FORT WORTH TX
900 PM CDT TUE JUN 02 2015

NOTE: "FAIR" INDICATES FEW OR NO CLOUDS BELOW 12,000 FEET WITH NO
SIGNIFICANT WEATHER AND/OR OBSTRUCTIONS TO VISIBILITY.

TXZ118-119-030300-
DALLAS/FORT WORTH METROPLEX

CITY           SKY/WX    TMP DP  RH WIND       PRES   REMARKS
DFW AIRPORT    MOCLDY    78  64  61 SE12      29.91S
DALLAS LOVE    MOCLDY    82  64  54 SE13      29.92R
FTW MEACHAM    PTCLDY    82  64  54 SE9       29.91R
DAL-EXECUTIVE  PTCLDY    79  65  62 SE7       29.92S
FTW-ALLIANCE   MOCLDY    80  66  62 SE10      29.91R
FTW-NAS-JRB    PTCLDY    84  64  50 SE10      29.91S
FTW-SPINKS     PTCLDY    79  65  62 SE3       29.93R
ARLINGTON      PTCLDY    81  65  58 E9        29.91S
GRAND PRAIRIE  PTCLDY    81  66  60 E6        29.92F
ADDISON        MOCLDY    81  61  50 SE9G15    29.93R
MESQUITE       PTCLDY    78  65  63 SE6       29.92F
LANCASTER      PTCLDY    77  65  65 SE5       29.93S
$$

TXZ091>094-102>105-117-120-121-131>134-030300-
NORTH CENTRAL TEXAS

CITY           SKY/WX    TMP DP  RH WIND       PRES   REMARKS
SHRMAN/DENISON PTCLDY    79  67  67 SE8       29.93S
GAINESVILLE    PTCLDY    75  66  73 E6        29.93S
BOWIE          CLEAR     75  65  71 SE3       29.91S
BRIDGEPORT     CLEAR     79  66  64 SE6       29.92S
DECATUR        CLEAR     78  63  60 SE6       29.92S
DENTON         PTCLDY    80  66  62 SE8       29.90F
MCKINNEY       PTCLDY    78  66  66 SE7       29.92S
GREENVILLE     PTCLDY    75  63  64 SE3       29.94S
ROCKWALL       PTCLDY    78  67  68 SE3       29.92S
TERRELL          N/A    N/A N/A N/A MISG      29.93F
WAXAHACHIE     PTCLDY    77  67  72 E5        29.94S
CLEBURNE       PTCLDY    81  70  69 SE9       29.93S
GRANBURY       CLEAR     83  65  55 SE6       29.92R
$$

TXZ083>090-098>101-113>116-127>130-139>142-154-155-030300-
WESTERN NORTH TEXAS

CITY           SKY/WX    TMP DP  RH WIND       PRES   REMARKS
WICHITA FALLS  PTCLDY    78  67  68 SE9       29.88R
WF-KICKAPOO    CLEAR     82  66  59 SE7       29.90R
VERNON           N/A    N/A N/A N/A S8        29.89R
ABILENE        CLEAR     78  63  59 SE8       29.91S
ABILENE-DYESS  CLEAR     79  64  59 S9        29.90R
BRECKENRIDGE   CLEAR     82  62  51 SE6       29.91R
MINERAL WELLS  CLEAR     78  66  66 SE6       29.90R
STEPHENVILLE   CLEAR     79  64  60 SE5       29.95S
COMANCHE       PTCLDY    78  65  64 S7        29.93S
COLEMAN        CLEAR     77  65  66 SE6       29.93S
BRADY          LGT RAIN  79  61  53 SE6       29.94S
$$

TXZ143>147-156>162-174-175-030300-
CENTRAL TEXAS

CITY           SKY/WX    TMP DP  RH WIND       PRES   REMARKS
WACO           CLEAR     79  64  60 SE7       29.91S
WACO-MCGREGOR  CLEAR     81  64  57 SE8       29.92S
HILLSBORO      PTCLDY    78  65  63 E8        29.93R
CORSICANA      CLEAR     77  67  71 SE6       29.94S
MEXIA          PTCLDY    76  68  75 SE10      29.92S
HEARNE         PTCLDY    79  67  66 CALM      29.93S
CAMERON        CLEAR     80  68  66 SE3       29.92S
TEMPLE         CLEAR     77  63  61 SE6       29.91S
KILLEEN        CLEAR     78  65  64 S5        29.92S
KILLEEN-SKYLRK CLEAR     81  64  57 SE7       29.93R
FORT HOOD      PTCLDY    80  64  59 SE8       29.92R
HAMILTON       CLEAR     78  64  62 SE7       29.94S
LAMPASAS       CLEAR     80  66  63 S5        29.94S
$$

TXZ095>097-106>112-122>126-135>138-148>153-164>167-030300-
EAST TEXAS

CITY           SKY/WX    TMP DP  RH WIND       PRES   REMARKS
PARIS          CLEAR     75  63  64 SE8       29.94F
SULPHUR SPRNGS CLEAR     77  65  65 SE3       29.96S
MOUNT PLEASANT CLOUDY    75  67  75 CALM      29.96S
GILMER         PTCLDY   N/A N/A N/A CALM      29.95S
MINEOLA        CLEAR     73  70  88 CALM      29.95S
TYLER          CLEAR     77  65  66 E5        29.94F
LONGVIEW       CLEAR     75  68  78 CALM      29.94S
MARSHALL       CLEAR     73  68  82 CALM      29.97S
ATHENS         CLEAR     73  68  83 CALM      29.93S
PALESTINE      CLEAR     75  69  81 CALM      29.95S
JACKSONVILLE   CLEAR     76  64  66 E3        29.97S
HENDERSON      CLEAR     73  67  83 MISG      29.96S
NACOGDOCHES    CLEAR     70  64  83 CALM      29.95R
LUFKIN         CLEAR     79  67  66 CALM      29.94S
$$

SUPPLEMENTAL OBSERVATIONS (CENTRAL)

CITY           SKY/WX    TMP DP  RH WIND       PRES   REMARKS
$$

SUPPLEMENTAL OBSERVATIONS (WEST)

CITY           SKY/WX    TMP DP  RH WIND       PRES   REMARKS
$$

SUPPLEMENTAL OBSERVATIONS (EAST)

CITY           SKY/WX    TMP DP  RH WIND       PRES   REMARKS
$$

SUPPLEMENTAL OBSERVATIONS ARE A COLLECTION OF AUTOMATED INSTRUMENTS
THAT ARE MAINTAINED BY A VARIETY OF FEDERAL AND STATE AGENCIES.
CERTAIN ELEMENTS...SUCH AS HUMIDITY VALUES AND SUSTAINED WIND
SPEEDS...MAY BE APPROXIMATED.



USA.gov is the U.S. government's official web portal to all federal, state and local government web resources and services.